Kuchera_Ratio
0.0 0.0 0.0 0.0 0.0 0.0 0.0 0.0 0.0 0.0 0.0 0.0 0.0 0.0 0.0 0.0 0.0 0.0 0.0 0.0 0.0 0.0 0.0 0.0 0.0 0.0 0.0 0.0 0.0 0.0 0.0 0.0 0.0 0.0 0.0 0.0 0.0 0.0
0.0 0.0 0.0 0.0 0.0 0.0 0.0 0.0 0.0 0.0 0.0 0.0 0.0 0.0 0.0 0.0 0.0 0.0 0.0 0.0 0.0 0.0 0.0 0.0 0.0 0.0 0.0 0.0 0.0 0.0 0.0 0.0 0.0 0.0 0.0 0.0 0.0 0.0
0.0 0.0 0.0 0.0 0.0 0.0 0.0 0.0 0.0 0.0 0.0 0.0 0.0 0.0 0.0 0.0 0.0 0.0 0.0 0.0 0.0 0.0 0.0 0.0 0.0 0.0 0.0 0.0 0.0 0.0 0.0 0.0 0.0 0.0 0.0 0.0 0.0 0.0
0.0 0.0 0.0 0.0 0.0 0.0 0.0 0.0 0.0 0.0 0.0 0.0 0.0 0.0 0.0 0.0 0.0 0.0 0.0 0.0 0.0 0.0 0.0 0.0 0.0 0.0 0.0 0.0 0.0 0.0 0.0 0.0 0.0 0.0 0.0 0.0 0.0 0.0
0.0 0.0 0.0 0.0 0.0 0.0 0.0 0.0 0.0 0.0 0.0 0.0 0.0 0.0 0.0 0.0 0.0 0.0 0.0 0.0 0.0 0.0 0.0 0.0 0.0 0.0 0.0 0.0 0.0 0.0 0.0 0.0 0.0 0.0 0.0 0.0 0.0 0.0
0.0 0.0 0.0 0.0 0.0 0.0 0.0 0.0 0.0 0.0 0.0 0.0 0.0 0.0 0.0 0.0 0.0 0.0 0.2 0.0 0.0 0.0 0.0 0.0 0.0 0.0 0.0 0.0 0.0 0.0 0.0 0.0 0.0 0.0 0.0 0.0 0.0 0.0
0.0 0.0 0.0 0.0 0.0 0.0 0.0 0.0 0.0 0.0 0.0 0.0 0.0 0.0 0.0 0.0 0.4 0.0 0.6 1.4 0.8 0.0 0.0 0.0 0.0 0.0 0.0 0.0 0.0 0.0 0.0 0.0 0.0 0.0 0.0 0.0 0.0 0.0
0.0 0.0 0.0 0.0 0.0 0.0 0.0 0.0 0.0 0.0 0.0 0.0 0.0 0.0 0.0 0.0 0.0 1.3 2.5 3.6 3.1 0.0 0.0 0.0 0.0 0.0 0.0 0.0 0.0 0.0 0.0 0.0 0.0 0.0 0.0 0.0 0.0 0.0
0.0 0.0 0.0 0.0 0.0 0.0 0.0 0.0 0.0 0.0 0.0 0.0 0.0 0.0 0.0 0.0 0.0 3.2 3.0 2.2 0.0 0.0 0.0 0.0 0.0 0.0 0.0 0.0 0.0 0.0 0.0 0.0 0.0 0.0 0.0 0.0 0.0 0.0
0.0 0.0 0.0 0.0 0.0 0.0 0.0 0.0 0.0 0.0 0.0 0.0 0.0 0.0 0.0 0.0 0.0 0.0 0.0 0.0 0.0 0.0 0.0 2.1 0.0 0.0 0.0 0.0 0.0 0.0 0.0 0.0 0.0 0.0 0.0 0.0 0.0 0.0
0.0 0.0 0.0 0.0 0.0 0.0 0.0 0.0 0.0 0.0 0.0 0.0 0.0 0.0 0.0 0.0 0.0 0.0 0.0 0.9 0.8 0.4 0.8 1.4 3.0 0.0 0.0 0.0 0.0 0.0 0.0 0.0 0.0 0.0 0.0 0.0 0.0 0.0
0.0 0.0 0.0 0.0 0.0 0.0 0.0 0.0 0.0 0.0 0.0 0.0 0.0 0.0 0.0 0.0 0.0 0.0 0.0 3.8 1.5 3.5 0.0 3.8 2.4 0.8 4.6 0.0 0.0 0.0 0.0 0.0 0.0 0.0 0.0 0.0 0.0 0.0
0.0 0.0 0.0 0.0 0.0 0.0 0.0 0.0 0.0 0.0 0.0 0.0 0.0 0.0 0.0 0.0 0.0 0.0 0.0 2.1 4.8 4.0 0.0 1.6 5.4 4.0 4.2 4.1 0.6 0.0 0.0 0.3 0.0 0.0 1.5 0.7 0.0 0.0
0.0 0.0 0.0 0.0 0.0 0.0 0.0 0.0 0.0 0.0 0.0 0.0 0.0 0.0 0.0 0.7 1.6 1.1 2.2 2.2 1.9 5.7 0.8 5.4 7.4 5.6 6.6 6.4 5.3 3.8 2.7 0.6 0.8 1.0 0.9 1.3 2.8 2.1
0.0 0.0 0.0 0.0 0.0 0.0 0.0 0.0 0.0 0.0 0.0 1.5 1.6 1.5 1.7 0.9 4.9 6.2 6.2 5.6 5.6 5.0 5.5 7.4 5.7 7.9 6.6 6.9 5.8 4.9 4.0 2.9 2.8 3.8 3.9 3.6 2.7 1.4
0.0 0.0 0.0 0.0 0.0 0.0 0.0 0.0 0.0 0.0 0.0 0.8 0.7 0.1 1.8 5.5 4.9 3.9 5.4 4.6 5.2 5.4 6.2 7.4 8.3 8.4 7.9 7.1 7.2 6.7 5.0 8.0 4.6 5.2 5.3 4.7 3.3 2.4
1.0 1.8 1.4 0.0 0.0 0.0 0.0 0.0 0.0 0.0 2.2 1.3 2.2 3.5 3.6 4.5 5.0 4.1 4.6 5.6 6.9 6.2 6.7 7.0 6.8 6.8 6.7 8.9 9.5 6.5 5.0 4.7 4.4 5.7 7.6 7.7 4.3 3.0
5.3 5.5 4.2 3.1 3.2 0.4 1.7 0.6 0.0 1.2 2.2 3.0 4.1 4.3 5.1 6.6 6.3 6.6 6.3 7.0 7.4 6.2 6.6 6.1 7.6 8.1 7.3 5.7 5.8 6.7 4.3 5.7 4.0 5.9 7.7 9.6 7.3 2.5
6.9 6.0 6.3 6.0 4.3 1.6 1.3 1.7 3.4 2.5 4.8 4.4 5.4 6.4 6.9 7.0 6.8 7.6 7.9 7.4 8.2 7.0 6.6 6.3 8.6 10.0 11.5 11.7 4.6 5.2 8.1 6.8 6.5 7.1 6.2 6.9 8.3 5.5
3.7 5.5 5.9 5.5 3.1 2.4 2.4 2.8 3.0 3.3 5.1 5.2 6.4 7.2 7.7 7.9 8.4 8.2 8.1 9.0 8.7 8.1 8.8 8.9 9.8 9.9 11.6 10.8 9.8 6.3 6.4 8.4 8.2 8.0 7.5 5.0 4.2 3.2
3.6 5.4 4.6 4.2 4.3 2.4 2.6 3.5 4.3 4.8 5.9 7.1 7.3 8.0 8.1 8.3 8.5 7.8 7.9 7.7 8.1 9.0 11.1 9.7 8.3 5.8 8.9 11.8 13.4 10.3 6.4 6.8 6.3 8.4 8.4 11.7 11.2 8.3
3.9 4.7 4.5 5.5 4.8 3.8 3.9 4.6 5.1 5.3 6.1 7.0 6.8 7.5 7.7 8.3 8.8 8.6 8.0 8.9 8.3 8.4 9.6 7.2 10.2 10.7 13.3 13.5 12.9 10.6 8.4 5.5 4.6 5.9 6.0 7.8 11.8 13.5
4.4 4.3 4.3 5.2 4.5 4.1 4.5 5.5 5.8 5.9 5.2 6.4 6.9 7.3 7.6 9.2 8.2 7.4 7.6 8.2 8.2 9.4 8.8 10.4 10.5 10.9 12.3 12.3 12.5 12.2 11.6 11.0 9.4 9.1 7.3 4.6 5.7 5.8